Regional Weather Roundup
Issued by NWS Cleveland, OH

Home | Current Version | Previous Version | Graphics & Text | Print | Product List | Glossary On
Versions: 1 2 3 4 5 6 7 8 9 10 11 12 13 14 15 16 17 18 19 20 21 22 23 24 25 26 27 28 29 30 31 32 33 34 35 36 37 38 39 40 41 42 43 44 45 46 47 48 49 50
000
ASUS41 KCLE 271912
RWRCLE
OHIO REGIONAL WEATHER ROUNDUP
NATIONAL WEATHER SERVICE WILMINGTON, OH
300 PM EDT THU APR 27 2017

NOTE: "FAIR" INDICATES FEW OR NO CLOUDS BELOW 12,000 FEET WITH NO
SIGNIFICANT WEATHER AND/OR OBSTRUCTIONS TO VISIBILITY.

OHZ001>008-015>018-024>027-034-035-043-044-272000-
   NORTHWEST OHIO

CITY           SKY/WX    TMP DP  RH WIND       PRES   REMARKS
DEFIANCE       PTSUNNY   60  46  59 W15G26    29.62R
FINDLAY        PTSUNNY   66  51  58 W29G35    29.60R
TOLEDO EXPRESS FAIR      66  51  58 SW24G33   29.58R
TOLEDO EXEC    PTSUNNY   67  53  61 SW25G37   29.58R
LIMA           PTSUNNY   65  52  62 W24G33    29.63R
$$

OHZ009>014-019>023-028>033-038-089-272000-
   NORTHEAST OHIO

CITY           SKY/WX    TMP DP  RH WIND       PRES   REMARKS
CLE-HOPKINS    CLOUDY    71  54  54 W17       29.61R
CLE-LAKEFRONT  CLOUDY    75  56  51 SW13G29   29.56R
CUY CO. ARPT   CLOUDY    77  57  50 SW17G23   29.58S
LORAIN-ELYRIA  PTSUNNY   71  54  54 SW20      29.60R
ASHTABULA      PTSUNNY   79  55  43 S17G24    29.59F
AKRON-CANTON   CLOUDY    74  55  51 SW20G28   29.62R
WOOSTER        PTSUNNY   74  56  53 S16G23    29.60S
MANSFIELD      LGT RAIN  67  58  72 SW18G31   29.62S
YOUNGSTOWN     CLOUDY    77  54  44 S10       29.61F
$$

OHZ042-051>053-060>062-070>072-077>081-272000-
  SOUTHWEST OHIO

CITY           SKY/WX    TMP DP  RH WIND       PRES   REMARKS
CINC-COVINGTON PTSUNNY   64  52  64 W16G28    29.70R
CINC-LUNKEN    PTSUNNY   69  58  67 W16G26    29.69R
HAMILTON       PTSUNNY   66  54  65 W15G22    29.70R
DAYTON         PTSUNNY   64  54  69 W22G31    29.68R
WRIGHT-PAT AFB PTSUNNY   67  56  68 SW23G36   29.65R
DAYTON GENERAL FAIR      66  53  63 SW21G31   29.67R
WILMINGTON     PTSUNNY   67  59  75 SW24      29.65R
$$

OHZ036-037-039>041-045>050-054>059-063>069-073>076-082>088-272000-
  CENTRAL AND SOUTHEAST OHIO

CITY           SKY/WX    TMP DP  RH WIND       PRES   REMARKS
COLUMBUS       PTSUNNY   72  60  66 SW14G24   29.64R
OSU AIRPORT    FAIR      72  62  71 SW14G22   29.62F
BOLTON FIELD   PTSUNNY   72  59  64 SW21G37   29.64S
RICKENBACK AFB PTSUNNY   73  59  61 SW21G30   29.62F
NEWARK         FAIR      73  56  54 SW18G33   29.63S
MARION         PTSUNNY   73  54  51 SW23G33   29.61S
LANCASTER      PTSUNNY   75  60  59 W18G28    29.65S
ZANESVILLE     PTSUNNY   77  56  48 S16G26    29.63S
NEW PHILLY     CLOUDY    78  56  46 SW12G23   29.63S
$$




USA.gov is the U.S. government's official web portal to all federal, state and local government web resources and services.